Location: Unspecified
(54.1780°N, 0.0000°E)
Time: 02:41:56
(UTC+00:00)

Vanguard 2 - Pass Details

Date: 18 June 2019
Orbit: 553 x 2938 km, 32.9° (Epoch: 23 July)

Event Time Altitude Azimuth Distance (km) Brightness Sun altitude
Rises 08:51:08 0° 196° (SSW) 3,728 11.1 43.2°
Reaches altitude 10° 08:55:56 10° 164° (SSE) 3,281 11.3 43.9°
Maximum altitude 08:58:27 12° 146° (SE) 3,421 11.7 44.2°
Drops below altitude 10° 09:01:17 10° 129° (SE) 3,838 12.1 44.6°
Sets 09:08:34 0° 103° (ESE) 5,526 12.6 45.6°
